TimeCST,TemperatureF,Dew PointF,Humidity,Sea Level PressureIn,VisibilityMPH,Wind Direction,Wind SpeedMPH,Gust SpeedMPH,PrecipitationIn,Events,Conditions,WindDirDegrees,DateUTC
12:56 AM,32.0,30.0,92,30.32,10.0,Calm,Calm,-,N/A,,Clear,0,2013-11-09 06:56:00
1:45 AM,30.2,28.4,93,30.28,2.0,Calm,Calm,-,N/A,,Clear,0,2013-11-09 07:45:00
1:56 AM,30.0,29.1,96,30.32,5.0,SSE,4.6,-,N/A,,Clear,160,2013-11-09 07:56:00
2:56 AM,30.0,29.1,96,30.32,10.0,South,4.6,-,N/A,,Clear,170,2013-11-09 08:56:00
3:56 AM,28.0,27.1,96,30.30,10.0,South,4.6,-,N/A,,Clear,190,2013-11-09 09:56:00
4:56 AM,29.1,28.0,96,30.31,10.0,Calm,Calm,-,N/A,,Clear,0,2013-11-09 10:56:00
5:25 AM,30.2,30.2,100,30.27,1.8,Calm,Calm,-,N/A,,Clear,0,2013-11-09 11:25:00
5:28 AM,30.2,30.2,100,30.27,1.0,Calm,Calm,-,N/A,,Clear,0,2013-11-09 11:28:00
5:34 AM,30.2,30.2,100,30.28,1.5,Calm,Calm,-,N/A,,Clear,0,2013-11-09 11:34:00
5:37 AM,30.2,28.4,93,30.28,3.0,Calm,Calm,-,N/A,,Clear,0,2013-11-09 11:37:00
5:56 AM,31.1,30.0,96,30.32,10.0,SSE,4.6,-,N/A,,Clear,150,2013-11-09 11:56:00
6:56 AM,32.0,30.0,92,30.34,10.0,Calm,Calm,-,N/A,,Clear,0,2013-11-09 12:56:00
7:56 AM,41.9,32.9,70,30.35,9.0,South,4.6,-,N/A,,Clear,180,2013-11-09 13:56:00
8:56 AM,47.8,32.9,56,30.35,10.0,South,5.8,-,N/A,,Clear,180,2013-11-09 14:56:00
9:56 AM,52.0,29.1,41,30.35,10.0,SSW,12.7,17.3,N/A,,Clear,210,2013-11-09 15:56:00
10:56 AM,54.9,32.9,43,30.35,10.0,SSW,6.9,-,N/A,,Clear,200,2013-11-09 16:56:00
11:56 AM,56.8,34.0,42,30.32,10.0,SSW,6.9,-,N/A,,Clear,210,2013-11-09 17:56:00
12:56 PM,57.9,34.0,41,30.29,10.0,SW,10.4,-,N/A,,Partly Cloudy,220,2013-11-09 18:56:00
1:56 PM,57.9,34.0,41,30.26,10.0,SSW,8.1,-,N/A,,Clear,200,2013-11-09 19:56:00
2:56 PM,59.0,34.0,39,30.25,10.0,SSW,5.8,-,N/A,,Clear,210,2013-11-09 20:56:00
3:56 PM,59.9,34.0,38,30.26,10.0,SW,6.9,-,N/A,,Clear,230,2013-11-09 21:56:00
4:56 PM,54.0,34.9,49,30.27,10.0,SSW,6.9,-,N/A,,Clear,200,2013-11-09 22:56:00
5:56 PM,52.9,34.9,50,30.29,10.0,SW,4.6,-,N/A,,Clear,220,2013-11-09 23:56:00
6:56 PM,47.8,36.9,66,30.30,10.0,SSE,3.5,-,N/A,,Clear,160,2013-11-10 00:56:00
7:56 PM,50.9,37.9,61,30.30,10.0,Calm,Calm,-,N/A,,Overcast,0,2013-11-10 01:56:00
8:56 PM,46.9,36.9,68,30.30,10.0,Calm,Calm,-,N/A,,Clear,0,2013-11-10 02:56:00
9:56 PM,43.0,37.9,82,30.30,10.0,Calm,Calm,-,N/A,,Mostly Cloudy,0,2013-11-10 03:56:00
10:56 PM,41.9,37.9,86,30.30,10.0,Calm,Calm,-,N/A,,Clear,0,2013-11-10 04:56:00
11:56 PM,41.0,37.9,89,30.30,10.0,Calm,Calm,-,N/A,,Mostly Cloudy,0,2013-11-10 05:56:00